Regional Weather Roundup
Issued by NWS State College, PA

Home | Current Version | Previous Version | Text Only | Print | Product List | Glossary On
Versions: 1 2 3 4 5 6 7 8 9 10 11 12 13 14 15 16 17 18 19 20 21 22 23 24 25 26 27 28 29 30 31 32 33 34 35 36 37 38 39 40 41 42 43 44 45 46 47 48 49 50
919
ASUS41 KCTP 291203
RWRCTP

REGIONAL WEATHER ROUNDUP
NATIONAL WEATHER SERVICE STATE COLLEGE PA
800 AM EDT MON MAY 29 2017

Note: "fair" indicates few or no clouds below 12,000 feet with no
significant weather and/or obstructions to visibility.

* = STATION THAT DOES NOT REPORT PRECIPITATION /E.G. RAIN...SNOW...ETC/
    THUNDER OR FOG.

PAZ002>004-007>009-013>016-020>023-029>032-291300-
WESTERN PENNSYLVANIA

CITY           SKY/WX    TMP DP  RH WIND       PRES   REMARKS
ERIE           CLOUDY    63  60  90 SW14G21   29.80R
MEADVILLE      CLOUDY    60  59  96 W8        29.83R
FRANKLIN*      CLOUDY    59  55  88 SW8       29.86R
NEW CASTLE     FAIR      61  59  93 SW8       29.87R
BEAVER COUNTY  NOT AVBL
BUTLER*        CLOUDY    61  57  88 W8G16     29.88R
PITTSBURGH INT PTSUNNY   62  60  93 W8        29.87R
PITTSBURGH     CLOUDY    61  57  87 SW8       29.88R
INDIANA*       CLOUDY    61  61 100 W12       29.90R
LATROBE        PTSUNNY   61  61 100 SW12      29.89R
WASHINGTON CO* PTSUNNY   61  57  88 SW7       29.91R
$$

PAZ004>006-010>012-017>019-024>028-033>037-041-042-045-046-049>053-291300-
CENTRAL PENNSYLVANIA

CITY           SKY/WX    TMP DP  RH WIND       PRES   REMARKS
BRADFORD       CLOUDY    59  58  96 VRB6      29.82S
DUBOIS         MOSUNNY   60  57  89 SW12      29.84R
CLEARFIELD     PTSUNNY   61  61 100 S8        29.84R
JOHNSTOWN      CLOUDY    58  57  97 SW6       29.88R
ALTOONA        MOSUNNY   64  61  90 SW7       29.86R
STATE COLLEGE  PTSUNNY   61  61 100 SW7       29.83R FOG
WILLIAMSPORT   LGT RAIN  59  58  96 E14       29.81F
SELINSGROVE    CLOUDY    58  58 100 SE6       29.84S FOG
FT INDIANTOWN  DRIZZLE   57  57 100 E3        29.87R
CAPITAL CITY   HVY RAIN  61  57  87 NE10      29.84S FOG
HARRISBURG     LGT RAIN  60  59  96 E9        29.84R FOG
YORK           CLOUDY    61  61 100 E8        29.84S
$$

PAZ038>040-043-044-047-048-054-055-060>062-067>071-291300-
EASTERN PENNSYLVANIA

CITY           SKY/WX    TMP DP  RH WIND       PRES   REMARKS
SCRANTON       LGT RAIN  56  54  93 VRB6      29.86S
MOUNT POCONO   LGT RAIN  50  50 100 SE10      29.91R FOG
ALLENTOWN      RAIN      57  53  86 E7        29.89R
QUAKERTOWN*    CLOUDY    55  55 100 CALM      29.90R
READING        CLOUDY    59  59 100 VRB3      29.87R
LANCASTER      CLOUDY    59  59 100 E6        29.87R FOG
COATESVILLE    FOG       57  57 100 CALM      29.89R VSB 1
POTTSTOWN      LGT RAIN  57  56  96 NE5       29.90R FOG
BLUE BELL      CLOUDY    55  55 100 E3        29.89R
DOYLESTOWN     RAIN      55  55 100 CALM      29.88R FOG
WILLOW GROVE   NOT AVBL
NORTH PHILA    CLOUDY    59  56  89 E12       29.88R
PHILADELPHIA   LGT RAIN  59  57  93 E9        29.86S
$$




USA.gov is the U.S. government's official web portal to all federal, state and local government web resources and services.